User: anonymous   Login
Location: Unspecified
(0.0000°N, 0.0000°E)
Time: 00:07:58
(UTC+00:00)
Language:

IRS-1B - Orbit

View from above orbital plane
View from above orbital plane
View from above satellite
View from above satellite

Ground track
Ground track

The orbit data is extracted from the following two-line orbital elements,

1 21688U 91061A   18112.47731065 -.00000206 +00000-0 -11496-3 0  9992
2 21688 099.0705 056.1535 0024071 208.5048 259.4375 13.97311961252581
Epoch (UTC): 22 April 2018 11:27:19
Eccentricity: 0.0024071
inclination: 99.0705°
perigee height: 885 km
apogee height: 920 km
right ascension of ascending node: 56.1535°
argument of perigee: 208.5048°
revolutions per day: 13.97311961
mean anomaly at epoch: 259.4375°
orbit number at epoch: 25258

The dashed part of the orbit path shows where the satellite is in the earth's shadow,  

DLR